Weather History for Dublin, VA

Change the Weather History Date:

Wednesday, January 16, 2013

  Actual Average (KBCB) Record (KBCB)
Temperature  
Mean Temperature 45 °F 31 °F  
Max Temperature 55 °F 41 °F 62 °F (1953)
Min Temperature 35 °F 21 °F -10 °F (1972)
Degree Days  
Heating Degree Days 20 34  
Month to date heating degree days 544  
Since 1 July heating degree days 2691  
Cooling Degree Days 0 0  
Month to date cooling degree days 0  
Year to date cooling degree days 0  
Moisture  
Dew Point 42 °F    
Average Humidity 99    
Maximum Humidity 100    
Minimum Humidity 88    
Precipitation  
Precipitation 0.07 in 0.10 in 1.05 in (1998)
Month to date precipitation 1.60  
Year to date precipitation 1.60  
Snow  
Snow 0.00 in - - ()
Month to date snowfall  
Since 1 July snowfall  
Snow Depth -    
Sea Level Pressure  
Sea Level Pressure 30.00 in    
Wind  
Wind Speed 3 mph (NNE)    
Max Wind Speed 13 mph    
Max Gust Speed -    
Visibility 9 miles    
Events Rain , Snow    
T = Trace of Precipitation, MM = Missing Value Source: NWS Daily Summary

Daily Weather History Graph

Daily Weather History Graph

Search for Another Location

Airport:

Trip Planner

Search our weather history database for the weather conditions in past years. The results will help you decide how hot, cold, wet, or windy it might be!

Date:

Astronomy

Jan. 16, 2013 Rise Set
Actual Time 7:34 AM EST 5:30 PM EST
Civil Twilight 7:06 AM EST 5:58 PM EST
Nautical Twilight 6:34 AM EST 6:30 PM EST
Astronomical Twilight 6:03 AM EST 7:02 PM EST
Moon 10:19 AM EST (1/16) 11:11 PM EST (1/16)
Length of Visible Light 10h 52m
Length of Day
9h 55m
Waxing Crescent, 28% of the Moon is Illuminated
Jan 16
Waxing Crescent
Jan 18
First Quarter
Jan 26
Full
Feb 3
Last Quarter
Feb 10
New

Hourly Weather History & Observations

Time (EST) Temp. Windchill Dew Point Humidity Pressure Visibility Wind Dir Wind Speed Gust Speed Precip Events Conditions
12:15 AM 37.4 °F 33.8 °F 37.4 °F 100% 30.06 in 7.0 mi East 4.6 mph - N/A Rain Light Rain
12:35 AM 37.4 °F 33.8 °F 37.4 °F 100% 30.06 in 7.0 mi East 4.6 mph - 0.01 in   Drizzle
1:15 AM 37.4 °F 33.8 °F 37.4 °F 100% 30.06 in 3.0 mi East 4.6 mph - 0.01 in   Light Drizzle
1:35 AM 37.4 °F 34.9 °F 37.4 °F 100% 30.06 in 4.0 mi East 3.5 mph - 0.01 in Snow Light Snow
1:55 AM 37.4 °F 34.9 °F 37.4 °F 100% 30.06 in 10.0 mi East 3.5 mph - N/A   Overcast
2:15 AM 37.4 °F 34.9 °F 37.4 °F 100% 30.05 in 10.0 mi East 3.5 mph - N/A Rain Light Rain
2:35 AM 37.4 °F 33.8 °F 37.4 °F 100% 30.04 in 7.0 mi ENE 4.6 mph - 0.01 in   Overcast
2:55 AM 37.4 °F 34.9 °F 37.4 °F 100% 30.04 in 10.0 mi ENE 3.5 mph - N/A   Overcast
3:15 AM 37.4 °F 34.9 °F 37.4 °F 100% 30.03 in 10.0 mi NNE 3.5 mph - N/A   Overcast
3:35 AM 37.4 °F - 37.4 °F 100% 30.02 in 10.0 mi Calm Calm - N/A   Overcast
3:55 AM 37.4 °F - 37.4 °F 100% 30.01 in 10.0 mi Calm Calm - N/A   Overcast
4:15 AM 35.6 °F - 35.6 °F 100% 30.02 in 7.0 mi Calm Calm - N/A   Overcast
4:35 AM 37.4 °F 34.9 °F 37.4 °F 100% 29.99 in 5.0 mi NE 3.5 mph - N/A   Overcast
4:55 AM 37.4 °F - 37.4 °F 100% 30.00 in 7.0 mi Calm Calm - N/A   Overcast
5:15 AM 37.4 °F - 37.4 °F 100% 29.99 in 7.0 mi Calm Calm - N/A   Overcast
5:35 AM 37.4 °F - 37.4 °F 100% 29.99 in 3.0 mi Calm Calm - 0.02 in   Overcast
5:55 AM 37.4 °F - 37.4 °F 100% 29.98 in 3.0 mi Calm Calm - 0.01 in   Overcast
6:15 AM 37.4 °F - 37.4 °F 100% 29.98 in 4.0 mi Calm Calm - N/A   Overcast
6:35 AM 37.4 °F - 37.4 °F 100% 29.99 in 7.0 mi Calm Calm - N/A   Overcast
6:55 AM 37.4 °F - 37.4 °F 100% 29.99 in 7.0 mi Calm Calm - N/A   Overcast
7:35 AM 37.4 °F - 37.4 °F 100% 30.00 in 10.0 mi Calm Calm - N/A   Overcast
7:55 AM - - - N/A% 30.01 in - SE 4.6 mph - 0.01 in   Unknown
8:15 AM 37.4 °F - 37.4 °F 100% 30.03 in 1.2 mi Calm Calm - 0.01 in Rain Light Rain
8:35 AM 37.4 °F - 37.4 °F 100% 30.02 in 1.5 mi Calm Calm - 0.01 in Rain Rain
8:55 AM 37.4 °F - 37.4 °F 100% 30.05 in 10.0 mi Calm Calm - N/A Rain Light Rain
9:15 AM 37.4 °F - 37.4 °F 100% 30.05 in 5.0 mi Calm Calm - N/A Rain Light Rain
9:35 AM 37.4 °F - 37.4 °F 100% 30.05 in 5.0 mi Calm Calm - 0.01 in Rain Light Rain
9:55 AM 39.2 °F - 39.2 °F 100% 30.06 in 10.0 mi Calm Calm - N/A Rain Light Rain
10:15 AM 39.2 °F 37.0 °F 39.2 °F 100% 30.05 in 10.0 mi South 3.5 mph - N/A   Light Drizzle
10:35 AM 39.2 °F - 39.2 °F 100% 30.03 in 10.0 mi Calm Calm - N/A   Overcast
10:55 AM 41.0 °F 39.0 °F 41.0 °F 100% 30.03 in 10.0 mi SSE 3.5 mph - N/A   Overcast
11:15 AM 41.0 °F - 41.0 °F 100% 30.00 in 10.0 mi Calm Calm - N/A   Overcast
11:35 AM 42.8 °F - 42.8 °F 100% 29.99 in 10.0 mi Calm Calm - N/A   Overcast
11:55 AM 42.8 °F - 42.8 °F 100% 29.97 in 10.0 mi Calm Calm - N/A   Overcast
12:15 PM 42.8 °F - 42.8 °F 100% 29.97 in 10.0 mi Calm Calm - N/A   Overcast
12:35 PM 42.8 °F - 42.8 °F 100% 29.96 in 10.0 mi Calm Calm - N/A   Overcast
12:55 PM 44.6 °F - 44.6 °F 100% 29.95 in 10.0 mi Calm Calm - N/A   Overcast
1:15 PM 44.6 °F - 44.6 °F 100% 29.94 in 10.0 mi Calm Calm - N/A   Overcast
1:35 PM 46.4 °F - 46.4 °F 100% 29.94 in 10.0 mi Calm Calm - N/A   Overcast
1:55 PM 48.2 °F - 48.2 °F 100% 29.94 in 10.0 mi Calm Calm - N/A   Mostly Cloudy
2:15 PM 48.2 °F - 48.2 °F 100% 29.95 in 10.0 mi Calm Calm - N/A   Overcast
2:35 PM 50.0 °F - 50.0 °F 100% 29.95 in 10.0 mi Calm Calm - N/A   Overcast
3:15 PM 51.8 °F - 51.8 °F 100% 29.95 in 10.0 mi Calm Calm - N/A   Overcast
3:35 PM 51.8 °F - 51.8 °F 100% 29.95 in 10.0 mi Calm Calm - N/A Rain Light Rain
3:55 PM 51.8 °F - 51.8 °F 100% 29.94 in 10.0 mi Calm Calm - N/A   Light Drizzle
4:15 PM 51.8 °F - 51.8 °F 100% 29.94 in 10.0 mi Calm Calm - N/A   Mostly Cloudy
4:35 PM 50.0 °F - 50.0 °F 100% 29.94 in 10.0 mi Calm Calm - N/A   Mostly Cloudy
4:55 PM 53.6 °F - 53.6 °F 100% 29.96 in 10.0 mi WSW 10.4 mph - N/A   Overcast
5:15 PM 55.4 °F - 51.8 °F 88% 29.96 in 10.0 mi WSW 12.7 mph - N/A   Overcast
5:35 PM 55.4 °F - 51.8 °F 88% 29.97 in 10.0 mi WSW 6.9 mph - N/A   Overcast
5:55 PM 48.2 °F - 48.2 °F 100% 29.99 in 10.0 mi NE 3.5 mph - N/A   Overcast
6:15 PM 48.2 °F - 48.2 °F 100% 29.99 in 10.0 mi North 3.5 mph - N/A   Overcast
6:55 PM 46.4 °F 42.9 °F 46.4 °F 100% 30.01 in 10.0 mi NNW 6.9 mph - N/A   Overcast
7:15 PM 46.4 °F 41.9 °F 44.6 °F 93% 30.01 in 10.0 mi NW 9.2 mph - N/A Rain Rain
7:35 PM 46.4 °F 41.9 °F 44.6 °F 93% 30.02 in 10.0 mi WNW 9.2 mph - N/A Rain Light Rain
7:55 PM 46.4 °F 41.1 °F 44.6 °F 93% 30.02 in 10.0 mi West 11.5 mph - N/A   Overcast
8:15 PM 44.6 °F 43.1 °F 42.8 °F 93% 30.01 in 10.0 mi WSW 3.5 mph - N/A Rain Light Rain
8:35 PM 44.6 °F 42.2 °F 44.6 °F 100% 30.01 in 10.0 mi East 4.6 mph - N/A   Light Drizzle
8:55 PM 44.6 °F - 44.6 °F 100% 30.01 in 10.0 mi Calm Calm - N/A   Overcast
9:15 PM 44.6 °F 43.1 °F 44.6 °F 100% 30.03 in 10.0 mi NNW 3.5 mph - N/A   Overcast
9:35 PM 44.6 °F - 42.8 °F 93% 30.02 in 10.0 mi Calm Calm - N/A   Overcast
9:55 PM 44.6 °F 43.1 °F 42.8 °F 93% 30.02 in 10.0 mi NNW 3.5 mph - N/A   Overcast
10:15 PM 44.6 °F 42.2 °F 42.8 °F 93% 30.01 in 10.0 mi NW 4.6 mph - N/A   Overcast
10:35 PM 42.8 °F - 42.8 °F 100% 30.02 in 10.0 mi Calm Calm - N/A   Overcast
10:55 PM 42.8 °F 41.1 °F 42.8 °F 100% 30.02 in 10.0 mi NNW 3.5 mph - N/A Rain Rain
11:15 PM 42.8 °F 39.3 °F 42.8 °F 100% 30.02 in 10.0 mi NW 5.8 mph - N/A Rain Light Rain
11:35 PM 42.8 °F - 42.8 °F 100% 30.02 in 10.0 mi Calm Calm - N/A Rain Light Rain
11:55 PM 42.8 °F - 42.8 °F 100% 30.03 in 10.0 mi Calm Calm - N/A Rain Rain